This is the latest recevied weather packets stored in our database for station/object SP2ARQ-13. If no packets are shown the sender has not sent any weather packets the latest 10 day(s).
| Time | Temp. | Humidity | Pressure | Rain* | Wind** | Luminosity | Snow |
|---|---|---|---|---|---|---|---|
| 1777907558 | 29.44° C | 39% | 1010.1 hPa | - | - | - | - |
| 1777906657 | 27.78° C | 41% | 1010.2 hPa | - | - | - | - |
| 1777905757 | 27.78° C | 40% | 1010.4 hPa | - | - | - | - |
| 1777904856 | 27.78° C | 41% | 1010.3 hPa | - | - | - | - |
| 1777903956 | 28.89° C | 39% | 1010.3 hPa | - | - | - | - |
| 1777903056 | 30° C | 37% | 1010.4 hPa | - | - | - | - |
| 1777902156 | 29.44° C | 38% | 1010.5 hPa | - | - | - | - |
| 1777901256 | 29.44° C | 39% | 1010.5 hPa | - | - | - | - |
| 1777900355 | 27.78° C | 41% | 1010.5 hPa | - | - | - | - |
| 1777899455 | 28.33° C | 40% | 1010.7 hPa | - | - | - | - |
| 1777898555 | 30.56° C | 38% | 1010.5 hPa | - | - | - | - |
| 1777897655 | 29.44° C | 39% | 1010.7 hPa | - | - | - | - |
| 1777896755 | 30° C | 37% | 1010.7 hPa | - | - | - | - |
| 1777895855 | 30° C | 38% | 1010.7 hPa | - | - | - | - |
| 1777894955 | 28.33° C | 39% | 1010.7 hPa | - | - | - | - |
| 1777894054 | 28.89° C | 37% | 1010.9 hPa | - | - | - | - |
| 1777893154 | 27.78° C | 38% | 1011 hPa | - | - | - | - |
| 1777892254 | 28.89° C | 37% | 1011.1 hPa | - | - | - | - |
| 1777891354 | 27.22° C | 39% | 1011.3 hPa | - | - | - | - |
| 1777890454 | 28.33° C | 39% | 1011.5 hPa | - | - | - | - |
| 1777889553 | 27.78° C | 39% | 1011.6 hPa | - | - | - | - |
| 1777888653 | 26.67° C | 40% | 1011.5 hPa | - | - | - | - |
| 1777887753 | 25.56° C | 40% | 1011.5 hPa | - | - | - | - |
| 1777886853 | 24.44° C | 42% | 1011.6 hPa | - | - | - | - |
| 1777885953 | 24.44° C | 42% | 1011.7 hPa | - | - | - | - |
* Rain since midnight (hover to see other rain measurements)
** Current wind speed in m/s (hover to see current wind gust speed)